Regional Weather Roundup
Issued by NWS Charleston, SC

Current Version | Previous Version | Graphics & Text | Print | Product List | Glossary On
Versions: 1 2 3 4 5 6 7 8 9 10 11 12 13 14 15 16 17 18 19 20 21 22 23 24 25 26 27 28 29 30 31 32 33 34 35 36 37 38 39 40 41 42 43 44 45 46 47 48 49 50
000 ASUS42 KCHS 162127 RWRCHS REGIONAL WEATHER ROUNDUP NATIONAL WEATHER SERVICE CHARLESTON SC 500 PM EDT MON OCT 16 2017 NOTE: "FAIR" INDICATES FEW OR NO CLOUDS BELOW 12,000 FEET WITH NO SIGNIFICANT WEATHER AND/OR OBSTRUCTIONS TO VISIBILITY. NOT ALL STATIONS ARE QUALITY CONTROLLED. USE DATA WITH CAUTION... ESPECIALLY DEWPOINT OBSERVATIONS. SCZ027-030-031-034>040-042>050-162200- ...SOUTHEAST SOUTH CAROLINA... CITY SKY/WX TMP DP RH WIND PRES REMARKS N CHARLESTON CLOUDY 76 70 82 N12G22 29.95R WATERFRONT PRK NOT AVBL JOHNS ISLAND CLOUDY 77 72 83 N9G17 29.95R PINOPOLIS N/A 70 68 94 N23 29.90R MONCKS CORNER CLOUDY 66 63 88 N9G20 30.00R SUMMERVILLE CLOUDY 68 64 88 N13G29 30.00R BEAUFORT MCAS PTSUNNY 79 75 87 CALM 29.95R BEAUFORT ARPT MOCLDY 77 72 83 W3 29.94S HILTON HEAD IS PTSUNNY 77 70 78 CALM 29.95S WALTERBORO CLOUDY 72 68 88 N14G23 29.99R ALLENDALE NOT AVBL ...SOUTHERN MIDLANDS AND PEE DEE... CITY SKY/WX TMP DP RH WIND PRES REMARKS GEORGETOWN CLOUDY 64 64 100 N12G17 30.00R KINGSTREE CLOUDY 63 55 77 N5 30.04R ORANGEBURG CLOUDY 67 57 70 N17G24 30.03R BARNWELL N/A 72 64 78 NE14G22 30.02R AIKEN MOCLDY 68 59 73 N14G20 30.07R MANNING DRIZZLE 64 48 55 MISG 30.04R COLUMBIA CLOUDY 70 58 65 NE12 30.04R SUMTER CLOUDY 66 55 68 N17 30.03R FLORENCE CLOUDY 63 56 78 N16 30.06R MYRTLE BEACH CLOUDY 65 62 90 N17 30.01R N MYRTLE BEACH CLOUDY 64 62 93 N13G21 30.00R $$ GAZ063-065-086>088-099>101-113>116-118-119-134>141-150-162200- ...SOUTHEAST GEORGIA... CITY SKY/WX TMP DP RH WIND PRES REMARKS SAVANNAH ARPT CLOUDY 76 72 87 N6 29.95R HUNTER AAF PTSUNNY 75 72 89 NW6 29.91F FORT STEWART CLOUDY 77 72 83 CALM 29.92F STATESBORO PTSUNNY 81 64 55 N10 29.95S SYLVANIA CLOUDY 81 70 69 N7 29.97S CLAXTON MOCLDY 83 71 66 W8 29.95S ...CSRA...CENTRAL AND FAR SOUTHEAST GEORGIA... CITY SKY/WX TMP DP RH WIND PRES REMARKS THOMSON PTSUNNY 77 61 57 E12 30.07R AUGUSTA-BUSH MOSUNNY 80 66 62 NE13 29.99R AUGUSTA-DANIEL MOSUNNY 78 64 61 N10 30.01R SWAINSBORO FAIR 79 63 57 N6 29.99R VIDALIA MOSUNNY 82 68 61 NW10 29.96F EASTMAN FAIR 79 50 36 N6 30.01S HAZLEHURST N/A 83 60 46 N6 29.95F ALMA PTSUNNY 83 71 67 N8 29.95S WAYCROSS LGT RAIN 77 73 86 S6 29.95R JESUP NOT AVBL BAXLEY FAIR 79 70 73 N9 29.95S BRUNSWICK PTSUNNY 86 68 54 NW5 29.93S SAINT SIMONS CLOUDY 83 73 72 SE7 29.92S $$ SCZ027-028-034-036>038-045-046-048>050-GAZ119-141-162200- ...LAKE AND SUPPLEMENTAL COASTAL OBSERVATIONS... STATION/POSITION TIME TEMP WIND PRES WAVE SWELL AIR SEA DIR/SP/G HT/PER HT/PER/DIR (UTC) (F) (DEG/KT/KT) (MB) (FT/S) (FT/S/D) WINYAH BAY 2045 69 360/ 11 1015.0R LAKE MURRAY 2120 68 30/ 6/ 13 1016.9 ACE BASIN NERRS 2045 75 CALM 1014.0R FORT PULASKI 2100 76 80 70/ 3/ 4 1014.4 SAPELO ISLAND 2100 85 230/ 5 1013.0 $$ ANZ835-935-AMZ111-154-330-350-352-354-370-450-454-472-162200- ...C-MAN AND BUOY OBSERVATIONS... STATION/POSITION TIME TEMP WIND PRES WAVE SWELL AIR SEA DIR/SP/G HT/PER HT/PER/DIR (UTC) (F) (DEG/KT/KT) (MB) (FT/S) (FT/S/D) BUOY 41004 2110 79 82 340/ 10/ 23 1013.4 BUOY 41008 2050 80 82 120/ 4/ 6 1013.0R 2/ 8 2/ 80/ 8 FOLLY BEACH CMAN 2100 76 10/ 11/ 13 1014.9R CAPERS NEARSHORE 2108 73 79 30/ 12/ 16 1013.8R FRIPP NEARSHORE 2108 74 CALM / 2 N/A STATION/POSITION TIME TEMP WIND PRES WAVE SWELL AIR SEA DIR/SP/G HT/PER HT/PER/DIR (UTC) (F) (DEG/KT/KT) (MB) (FT/S) (FT/S/D) 5E ST. MARYS GA 2100 82 N/A 2/ 8 FRYING PAN BUOY 2110 76 79 360/ 21/ 25 1013.5 BUOY 41025 2050 71 80 10/ 23/ 27 1013.8R 4/ 4 2/120/ 8 CAPE LOOKOUT NC 2100 69 10/ 14/ 22 1014.6R BUOY 41002 2050 79 80 270/ 6/ 8 1013.6R 4/ 8 3/ 80/ 8 BUOY 41010 NOT AVBL ST AUGUSTINE FL 2100 80 83 90/ 6/ 7 1013.8S $$

USA.gov is the U.S. government's official web portal to all federal, state and local government web resources and services.